{"data":{"norad_id":67156,"intl_designator":"2025-301Z","name":"KUIPER-00251","alt_names":[],"object_type":"PAYLOAD","status":"ACTIVE","operator":null,"country":"US","launch_date":"2025-12-16","launch_site_code":"AFETR","launch_vehicle":null,"mission":null,"orbit_class":"UNKNOWN","rcs_meters":null,"size_class":null,"mass_kg":null,"dimensions":null,"purposes":[],"wikipedia_slug":null,"has_3d_model":false,"image_url":null,"decayed_at":null,"tle_current":{"epoch":"2026-09-20T14:12:27.476352Z","epoch_age_seconds":98249,"freshness":"FRESH","line1":"1 67156U 25301Z   26263.59198468  .00001472  00000+0  22212-3 0  9990","line2":"2 67156  51.9003 276.3085 0000617  44.7634 315.3378 14.79930295 42889","mean_motion":14.79930295,"eccentricity":6.17e-5,"inclination_deg":51.9003,"raan_deg":276.3085,"arg_perigee_deg":44.7634,"mean_anomaly_deg":315.3378,"bstar":0.00022212,"rev_number":4288,"period_min":97.301880018613,"perigee_km":629.11179427462,"apogee_km":629.97654213078,"semimajor_km":7007.6811682027,"source":"CELESTRAK","updated_at":"2026-09-21T09:00:16.460737Z"}}}